Regional Weather Roundup
Issued by NWS

Home | Current Version | Previous Version | Graphics & Text | Print | Product List | Glossary On
Versions: 1 2 3 4 5 6 7 8 9 10 11 12 13 14 15 16 17 18 19 20 21 22 23 24 25 26 27 28 29 30 31 32 33 34 35 36 37 38 39 40 41 42 43 44 45 46 47 48 49 50
000
ASUS45 KABQ 180310
RWRNM
WEATHER ROUNDUP FOR NEW MEXICO
NATIONAL WEATHER SERVICE ALBUQUERQUE NM
900 PM MDT THU APR 17 2014

NOTE: "FAIR" MEANS FEW OR NO CLOUDS BELOW 12,000 FEET AGL WITH NO
       SIGNIFICANT WEATHER OR OBSTRUCTIONS TO VISION.

      THIS PRODUCT IS RELEASED AS TWO VERSIONS.  ONE VERSION NEAR
      THE TOP OF THE HOUR CONTAINING PRELIMINARY DATA FROM ALBUQUERQUE
      AND OTHER STATIONS.  A FINAL VERSION WITH ADDITIONAL DATA IS
      ISSUED ABOUT 10 MINUTES AFTER THE HOUR.

NMZ501-503-504-510>518-180400-
NORTHWEST PLATEAU/NORTHCENTRAL MOUNTAINS

CITY           SKY/WX    TMP DP  RH WIND       PRES   REMARKS
FARMINGTON     CLEAR     55  19  24 CALM      30.07R
LOS ALAMOS     CLEAR     53  21  28 S7        30.20R
SANTA FE       CLEAR     54  24  31 SE16      30.15R
TAOS           CLEAR     48  19  32 SW8       30.19R
ANGEL FIRE     FAIR      39  33  81 S10       30.23R WCI  32

$$
NMZ402-403-502-505>509-180400-
WESTCENTRAL MOUNTAINS/SOUTHWEST MOUNTAINS

CITY           SKY/WX    TMP DP  RH WIND       PRES   REMARKS
GALLUP         CLEAR     51  16  24 SW7       30.12R
GRANTS         CLEAR     57  20  23 SE8       30.15R
SILVER CITY    CLEAR     63  10  13 E9        30.11R

$$
NMZ407-409-411-412-180400-
SOUTHERN DESERTS

CITY           SKY/WX    TMP DP  RH WIND       PRES   REMARKS
LORDSBURG      FAIR      64  12  13 SE6       30.00R
DEMING         CLEAR     67  14  13 SE6       30.03R
LAS CRUCES     CLEAR     67  17  14 SE6       30.08R
HOLLOMAN AFB   PTCLDY    67  29  23 SE8       30.06R
ALAMOGORDO     PTCLDY    64  27  24 SE3       30.08R
T OR C         CLEAR     67  23  19 SE8       30.06R

$$
NMZ519>523-180400-
CENTRAL VALLEYS/CENTRAL HIGHLANDS

CITY           SKY/WX    TMP DP  RH WIND       PRES   REMARKS
ALBUQUERQUE    CLEAR     60  22  23 E12       30.11R
DOUBLE EAGLE   CLEAR     52  19  28 S6        30.13R
MORIARTY ARPT  FAIR      49  25  39 SE12      30.19R
CLINES CORNERS CLEAR     45  26  47 SE9       30.20R
BELEN          FAIR      57  20  23 SE3       30.09R
SOCORRO        FAIR      61  19  20 S6        30.08R

$$
NMZ524>526-539-540-180400-
SOUTHCENTRAL MOUNTAINS

CITY           SKY/WX    TMP DP  RH WIND       PRES   REMARKS
RUIDOSO        CLEAR     46  25  42 SE7       30.27R

$$
NMZ527>531-180400-
NORTHEAST HIGHLANDS/NORTHEAST PLAINS

CITY           SKY/WX    TMP DP  RH WIND       PRES   REMARKS
LAS VEGAS      PTCLDY    43  27  53 S13       30.21R
RATON          PTCLDY    44  35  70 S5        30.17R
CLAYTON        CLEAR     41  30  65 SE9       30.19R

$$
NMZ532>537-180400-
EASTCENTRAL PLAINS

CITY           SKY/WX    TMP DP  RH WIND       PRES   REMARKS
TUCUMCARI      CLEAR     51  34  52 E10       30.18R
CANNON AFB     CLEAR     50  35  55 E12       30.21R
CLOVIS AIRPORT CLEAR     46  34  61 E13       30.25R

$$
NMZ028-029-538-180400-
SOUTHEAST PLAINS

CITY           SKY/WX    TMP DP  RH WIND       PRES   REMARKS
ROSWELL        CLEAR     61  30  31 E3        30.13R
ARTESIA        CLEAR     59  28  31 CALM      30.13R
CARLSBAD       CLEAR     65  30  27 NE6       30.11R
HOBBS          CLEAR     57  39  51 E13G18    30.18R


$$



USA.gov is the U.S. government's official web portal to all federal, state and local government web resources and services.